Tracking 31027 objects as of 18-Jul-2025
HD Live streaming from Space Station
objects crossing your sky now

COSMOS 839 DEB

Track COSMOS 839 DEB now!
10-day predictions


NORAD ID: 10439
Int'l Code: 1976-067Q
Perigee: 1,048.7 km
Apogee: 2,108.0 km
Inclination: 65.8 °
Period: 117.6 minutes
Semi major axis: 7949 km
RCS: 0.145 m2 (medium)
Launch date: July 8, 1976
Source: Commonwealth of Independent States (former USSR) (CIS)
Launch site: PLESETSK MISSILE AND SPACE COMPLEX (PKMTR)

Note: This is SATELLITE DEBRIS
Your satellite tracking list
Your tracking list is empty




NASA's NSSDC Master Catalog

Two Line Element Set (TLE):
1 10439U 76067Q   25198.70638934 -.00000082  00000-0 -12470-3 0  9997
2 10439  65.7891 313.8346 0666321 345.9931 161.4708 12.24914565191985
Source of the keplerian elements: AFSPC